Time,TemperatureF,DewpointF,PressureIn,WindDirection,WindDirectionDegrees,WindSpeedMPH,WindSpeedGustMPH,Humidity,HourlyPrecipIn,Conditions,Clouds,dailyrainin,SolarRadiationWatts/m^2,SoftwareType,DateUTC
2013-09-29 00:00:00,58.0,56.0,-100.00,West,270,3.0,-999.0,93,0.05,,,-99.99,0.000000,,2013-09-29 04:00:00,
2013-09-29 00:44:00,58.0,56.0,-100.00,West,270,3.0,-999.0,93,0.05,,,-99.99,0.000000,,2013-09-29 04:44:00,
2013-09-29 00:54:00,58.0,56.0,-100.00,West,270,3.0,-999.0,93,0.05,,,-99.99,0.000000,,2013-09-29 04:54:00,
2013-09-29 01:00:00,56.0,54.0,-100.00,WNW,292,4.0,-999.0,91,-99.99,,,-99.99,0.000000,,2013-09-29 05:00:00,
2013-09-29 01:43:00,56.0,54.0,-100.00,WNW,292,4.0,-999.0,91,-99.99,,,-99.99,0.000000,,2013-09-29 05:43:00,
2013-09-29 01:53:00,56.0,54.0,-100.00,WNW,292,4.0,-999.0,91,-99.99,,,-99.99,0.000000,,2013-09-29 05:53:00,
2013-09-29 02:00:00,54.0,52.0,-100.00,WNW,292,1.0,-999.0,92,-99.99,,,-99.99,0.000000,,2013-09-29 06:00:00,
2013-09-29 02:42:00,54.0,52.0,-100.00,WNW,292,1.0,-999.0,92,-99.99,,,-99.99,0.000000,,2013-09-29 06:42:00,
2013-09-29 02:52:00,54.0,52.0,-100.00,WNW,292,1.0,-999.0,92,-99.99,,,-99.99,0.000000,,2013-09-29 06:52:00,
2013-09-29 03:00:00,52.0,50.0,-100.00,West,270,1.0,-999.0,93,-99.99,,,-99.99,0.000000,,2013-09-29 07:00:00,
2013-09-29 03:43:00,52.0,50.0,-100.00,West,270,1.0,-999.0,93,-99.99,,,-99.99,0.000000,,2013-09-29 07:43:00,
2013-09-29 03:52:00,52.0,50.0,-100.00,West,270,1.0,-999.0,93,-99.99,,,-99.99,0.000000,,2013-09-29 07:52:00,
2013-09-29 04:00:00,49.0,48.0,-100.00,WSW,247,0.0,-999.0,96,0.05,,,-99.99,0.000000,,2013-09-29 08:00:00,
2013-09-29 04:42:00,49.0,48.0,-100.00,WSW,247,0.0,-999.0,96,0.05,,,-99.99,0.000000,,2013-09-29 08:42:00,
2013-09-29 04:52:00,49.0,48.0,-100.00,WSW,247,0.0,-999.0,96,0.05,,,-99.99,0.000000,,2013-09-29 08:52:00,
2013-09-29 05:00:00,48.0,47.0,-100.00,West,270,0.0,-999.0,97,-99.99,,,-99.99,0.000000,,2013-09-29 09:00:00,
2013-09-29 05:43:00,48.0,47.0,-100.00,West,270,0.0,-999.0,97,-99.99,,,-99.99,0.000000,,2013-09-29 09:43:00,
2013-09-29 05:54:00,48.0,47.0,-100.00,West,270,0.0,-999.0,97,-99.99,,,-99.99,0.000000,,2013-09-29 09:54:00,
2013-09-29 06:00:00,48.0,47.0,-100.00,West,270,0.0,-999.0,97,-99.99,,,-99.99,0.000000,,2013-09-29 10:00:00,
2013-09-29 06:43:00,48.0,47.0,-100.00,West,270,0.0,-999.0,97,-99.99,,,-99.99,0.000000,,2013-09-29 10:43:00,
2013-09-29 06:53:00,48.0,47.0,-100.00,West,270,0.0,-999.0,97,-99.99,,,-99.99,0.000000,,2013-09-29 10:53:00,
2013-09-29 07:00:00,46.0,45.0,-100.00,WSW,247,0.0,-999.0,97,-99.99,,,-99.99,0.000000,,2013-09-29 11:00:00,
2013-09-29 07:42:00,46.0,45.0,-100.00,WSW,247,0.0,-999.0,97,-99.99,,,-99.99,0.000000,,2013-09-29 11:42:00,
2013-09-29 07:52:00,46.0,45.0,-100.00,WSW,247,0.0,-999.0,97,-99.99,,,-99.99,0.000000,,2013-09-29 11:52:00,
2013-09-29 08:00:00,44.0,43.0,-100.00,SW,225,0.0,-999.0,97,-99.99,,,-99.99,1.160000,,2013-09-29 12:00:00,
2013-09-29 08:42:00,44.0,43.0,-100.00,SW,225,0.0,-999.0,97,-99.99,,,-99.99,1.160000,,2013-09-29 12:42:00,
2013-09-29 08:52:00,44.0,43.0,-100.00,SW,225,0.0,-999.0,97,-99.99,,,-99.99,1.160000,,2013-09-29 12:52:00,
2013-09-29 09:00:00,45.0,44.0,-100.00,WSW,247,0.0,-999.0,97,-99.99,,,-99.99,110.199997,,2013-09-29 13:00:00,
2013-09-29 09:42:00,45.0,44.0,-100.00,WSW,247,0.0,-999.0,97,-99.99,,,-99.99,110.199997,,2013-09-29 13:42:00,
2013-09-29 09:53:00,45.0,44.0,-100.00,WSW,247,0.0,-999.0,97,-99.99,,,-99.99,110.199997,,2013-09-29 13:53:00,
2013-09-29 10:00:00,51.0,49.0,-100.00,WSW,247,1.0,-999.0,93,-99.99,,,-99.99,258.679993,,2013-09-29 14:00:00,
2013-09-29 10:43:00,51.0,49.0,-100.00,WSW,247,1.0,-999.0,93,-99.99,,,-99.99,258.679993,,2013-09-29 14:43:00,
2013-09-29 10:52:00,51.0,49.0,-100.00,WSW,247,1.0,-999.0,93,-99.99,,,-99.99,258.679993,,2013-09-29 14:52:00,
2013-09-29 11:00:00,54.0,49.0,-100.00,WSW,247,2.0,-999.0,82,-99.99,,,-99.99,396.720001,,2013-09-29 15:00:00,
2013-09-29 11:45:00,54.0,49.0,-100.00,WSW,247,2.0,-999.0,82,-99.99,,,-99.99,396.720001,,2013-09-29 15:45:00,
2013-09-29 11:55:00,54.0,49.0,-100.00,WSW,247,2.0,-999.0,82,-99.99,,,-99.99,396.720001,,2013-09-29 15:55:00,
2013-09-29 12:00:00,58.0,49.0,-100.00,SW,225,2.0,-999.0,71,-99.99,,,-99.99,523.159973,,2013-09-29 16:00:00,
2013-09-29 12:44:00,58.0,49.0,-100.00,SW,225,2.0,-999.0,71,-99.99,,,-99.99,523.159973,,2013-09-29 16:44:00,
2013-09-29 12:54:00,58.0,49.0,-100.00,SW,225,2.0,-999.0,71,-99.99,,,-99.99,523.159973,,2013-09-29 16:54:00,
2013-09-29 13:00:00,62.0,49.0,-100.00,WSW,247,3.0,-999.0,61,-99.99,,,-99.99,604.359985,,2013-09-29 17:00:00,
2013-09-29 13:43:00,62.0,49.0,-100.00,WSW,247,3.0,-999.0,61,-99.99,,,-99.99,604.359985,,2013-09-29 17:43:00,
2013-09-29 13:52:00,62.0,49.0,-100.00,WSW,247,3.0,-999.0,61,-99.99,,,-99.99,604.359985,,2013-09-29 17:52:00,
2013-09-29 14:00:00,64.0,49.0,-100.00,SSW,202,4.0,-999.0,57,-99.99,,,-99.99,626.400024,,2013-09-29 18:00:00,
2013-09-29 14:42:00,64.0,49.0,-100.00,SSW,202,4.0,-999.0,57,-99.99,,,-99.99,626.400024,,2013-09-29 18:42:00,
2013-09-29 14:52:00,64.0,49.0,-100.00,SSW,202,4.0,-999.0,57,-99.99,,,-99.99,626.400024,,2013-09-29 18:52:00,
2013-09-29 15:00:00,64.0,52.0,-100.00,South,180,7.0,-999.0,64,-99.99,,,-99.99,595.080017,,2013-09-29 19:00:00,
2013-09-29 15:42:00,64.0,52.0,-100.00,South,180,7.0,-999.0,64,-99.99,,,-99.99,595.080017,,2013-09-29 19:42:00,
2013-09-29 15:52:00,64.0,52.0,-100.00,South,180,7.0,-999.0,64,-99.99,,,-99.99,595.080017,,2013-09-29 19:52:00,
2013-09-29 16:00:00,65.0,52.0,-100.00,SSE,157,7.0,-999.0,62,-99.99,,,-99.99,453.559998,,2013-09-29 20:00:00,
2013-09-29 16:43:00,65.0,52.0,-100.00,SSE,157,7.0,-999.0,62,-99.99,,,-99.99,453.559998,,2013-09-29 20:43:00,
2013-09-29 16:52:00,65.0,52.0,-100.00,SSE,157,7.0,-999.0,62,-99.99,,,-99.99,453.559998,,2013-09-29 20:52:00,
2013-09-29 17:00:00,65.0,52.0,-100.00,South,180,7.0,-999.0,61,-99.99,,,-99.99,426.880005,,2013-09-29 21:00:00,
2013-09-29 17:44:00,65.0,52.0,-100.00,South,180,7.0,-999.0,61,-99.99,,,-99.99,426.880005,,2013-09-29 21:44:00,
2013-09-29 17:55:00,65.0,52.0,-100.00,South,180,7.0,-999.0,61,-99.99,,,-99.99,426.880005,,2013-09-29 21:55:00,
2013-09-29 18:00:00,65.0,52.0,-100.00,South,180,6.0,-999.0,62,-99.99,,,-99.99,276.079987,,2013-09-29 22:00:00,
2013-09-29 18:43:00,65.0,52.0,-100.00,South,180,6.0,-999.0,62,-99.99,,,-99.99,276.079987,,2013-09-29 22:43:00,
2013-09-29 18:53:00,65.0,52.0,-100.00,South,180,6.0,-999.0,62,-99.99,,,-99.99,276.079987,,2013-09-29 22:53:00,
2013-09-29 19:00:00,61.0,53.0,-100.00,SSE,157,5.0,-999.0,74,-99.99,,,-99.99,64.959999,,2013-09-29 23:00:00,
2013-09-29 19:43:00,61.0,53.0,-100.00,SSE,157,5.0,-999.0,74,-99.99,,,-99.99,64.959999,,2013-09-29 23:43:00,
2013-09-29 19:53:00,61.0,53.0,-100.00,SSE,157,5.0,-999.0,74,-99.99,,,-99.99,64.959999,,2013-09-29 23:53:00,
2013-09-29 20:00:00,58.0,52.0,-100.00,South,180,3.0,-999.0,79,-99.99,,,-99.99,5.800000,,2013-09-30 00:00:00,
2013-09-29 20:42:00,58.0,52.0,-100.00,South,180,3.0,-999.0,79,-99.99,,,-99.99,5.800000,,2013-09-30 00:42:00,
2013-09-29 20:52:00,58.0,52.0,-100.00,South,180,3.0,-999.0,79,-99.99,,,-99.99,5.800000,,2013-09-30 00:52:00,
2013-09-29 21:00:00,55.0,51.0,-100.00,South,180,1.0,-999.0,85,-99.99,,,-99.99,0.000000,,2013-09-30 01:00:00,
2013-09-29 21:42:00,55.0,51.0,-100.00,South,180,1.0,-999.0,85,-99.99,,,-99.99,0.000000,,2013-09-30 01:42:00,
2013-09-29 21:52:00,55.0,51.0,-100.00,South,180,1.0,-999.0,85,-99.99,,,-99.99,0.000000,,2013-09-30 01:52:00,
2013-09-29 22:00:00,55.0,52.0,-100.00,South,180,2.0,-999.0,90,-99.99,,,-99.99,0.000000,,2013-09-30 02:00:00,
2013-09-29 22:42:00,55.0,52.0,-100.00,South,180,2.0,-999.0,90,-99.99,,,-99.99,0.000000,,2013-09-30 02:42:00,
2013-09-29 22:52:00,55.0,52.0,-100.00,South,180,2.0,-999.0,90,-99.99,,,-99.99,0.000000,,2013-09-30 02:52:00,
2013-09-29 23:00:00,53.0,50.0,-100.00,SSW,202,1.0,-999.0,89,-99.99,,,-99.99,0.000000,,2013-09-30 03:00:00,
2013-09-29 23:45:00,53.0,50.0,-100.00,SSW,202,1.0,-999.0,89,-99.99,,,-99.99,0.000000,,2013-09-30 03:45:00,
2013-09-29 23:55:00,53.0,50.0,-100.00,SSW,202,1.0,-999.0,89,-99.99,,,-99.99,0.000000,,2013-09-30 03:55:00,